• In Deutschland
  • Länderverzeichnis
  • Für 7 Tage
  • Wassertemperatur
  • Satellitenkarten
  • Wetterkarte
  • Widgets
  • user-avatar
    Anmelden

    Stündliche Wetter Potsdam

    Heute, 18 August, Samstag

    Zeit Temperatur Niederschläge Wind Luftdruck Luftfeuchtigkeit
    00:00 +19°C° 0,2 mm 2 m/S 760 mmHg 87%
    01:00 +19°C° 0,2 mm 2 m/S 760 mmHg 89%
    02:00 +18°C° 0 mm 2 m/S 760 mmHg 89%
    03:00 +18°C° 0 mm 2 m/S 761 mmHg 90%
    04:00 +17°C° 0 mm 2 m/S 761 mmHg 91%
    05:00 +18°C° 0 mm 2 m/S 761 mmHg 87%
    06:00 +18°C° 0 mm 2 m/S 761 mmHg 84%
    07:00 +18°C° 0 mm 2 m/S 761 mmHg 81%
    08:00 +20°C° 0 mm 2 m/S 762 mmHg 72%
    09:00 +21°C° 0 mm 2 m/S 762 mmHg 63%
    10:00 +24°C° 0 mm 2 m/S 762 mmHg 55%
    11:00 +25°C° 0 mm 2 m/S 762 mmHg 50%
    12:00 +26°C° 0 mm 2 m/S 762 mmHg 45%
    13:00 +27°C° 0 mm 2 m/S 762 mmHg 40%
    14:00 +27°C° 0 mm 2 m/S 761 mmHg 39%
    15:00 +27°C° 0 mm 2 m/S 761 mmHg 37%
    16:00 +28°C° 0 mm 2 m/S 761 mmHg 35%
    17:00 +26°C° 0 mm 2 m/S 761 mmHg 39%
    18:00 +25°C° 0 mm 1 m/S 761 mmHg 43%
    19:00 +24°C° 0 mm 1 m/S 761 mmHg 47%
    20:00 +23°C° 0 mm 1 m/S 761 mmHg 49%
    21:00 +22°C° 0 mm 1 m/S 762 mmHg 51%
    22:00 +21°C° 0 mm 1 m/S 762 mmHg 53%
    23:00 +20°C° 0 mm 1 m/S 762 mmHg 55%

    Morgen, 19 August, Sonntag

    Zeit Temperatur Niederschläge Wind Luftdruck Luftfeuchtigkeit
    00:00 +20°C° 0 mm 1 m/S 762 mmHg 56%
    01:00 +19°C° 0 mm 1 m/S 762 mmHg 58%
    02:00 +19°C° 0 mm 1 m/S 762 mmHg 59%
    03:00 +19°C° 0 mm 1 m/S 762 mmHg 61%
    04:00 +18°C° 0 mm 1 m/S 762 mmHg 62%
    05:00 +19°C° 0 mm 1 m/S 762 mmHg 61%
    06:00 +20°C° 0 mm 1 m/S 762 mmHg 60%
    07:00 +21°C° 0 mm 1 m/S 763 mmHg 59%
    08:00 +23°C° 0 mm 1 m/S 763 mmHg 54%
    09:00 +25°C° 0 mm 1 m/S 763 mmHg 50%
    10:00 +26°C° 0 mm 1 m/S 763 mmHg 45%
    11:00 +27°C° 0 mm 2 m/S 762 mmHg 43%
    12:00 +28°C° 0 mm 2 m/S 762 mmHg 40%
    13:00 +29°C° 0 mm 2 m/S 761 mmHg 38%
    14:00 +29°C° 0 mm 2 m/S 761 mmHg 38%
    15:00 +29°C° 0 mm 2 m/S 761 mmHg 38%
    16:00 +30°C° 0 mm 2 m/S 760 mmHg 37%
    17:00 +28°C° 0 mm 2 m/S 760 mmHg 42%
    18:00 +27°C° 0 mm 1 m/S 760 mmHg 46%
    19:00 +26°C° 0 mm 1 m/S 760 mmHg 51%
    20:00 +25°C° 0 mm 1 m/S 760 mmHg 54%
    21:00 +24°C° 0 mm 1 m/S 760 mmHg 57%
    22:00 +23°C° 0 mm 1 m/S 761 mmHg 59%
    23:00 +22°C° 0 mm 1 m/S 760 mmHg 62%

    übermorgen, 20 August, Montag

    Zeit Temperatur Niederschläge Wind Luftdruck Luftfeuchtigkeit
    00:00 +21°C° 0 mm 1 m/S 760 mmHg 65%
    01:00 +21°C° 0 mm 1 m/S 760 mmHg 68%
    02:00 +20°C° 0 mm 1 m/S 760 mmHg 70%
    03:00 +18°C° 0 mm 0 m/S 759 mmHg 72%
    04:00 +18°C° 0 mm 0 m/S 759 mmHg 73%
    05:00 +19°C° 0 mm 0 m/S 759 mmHg 70%
    06:00 +20°C° 0 mm 0 m/S 759 mmHg 68%
    07:00 +21°C° 0 mm 0 m/S 759 mmHg 65%
    08:00 +24°C° 0 mm 1 m/S 759 mmHg 59%
    09:00 +26°C° 0 mm 1 m/S 759 mmHg 53%
    10:00 +28°C° 0 mm 1 m/S 759 mmHg 47%
    11:00 +29°C° 0 mm 2 m/S 759 mmHg 45%
    12:00 +29°C° 0 mm 2 m/S 758 mmHg 44%
    13:00 +30°C° 0 mm 3 m/S 758 mmHg 42%
    14:00 +29°C° 0 mm 3 m/S 758 mmHg 45%
    15:00 +29°C° 0 mm 3 m/S 758 mmHg 47%
    16:00 +28°C° 0 mm 3 m/S 757 mmHg 50%
    17:00 +27°C° 0 mm 3 m/S 758 mmHg 54%
    18:00 +26°C° 0 mm 2 m/S 758 mmHg 57%
    19:00 +25°C° 0 mm 2 m/S 758 mmHg 61%
    20:00 +24°C° 0 mm 2 m/S 758 mmHg 65%
    21:00 +23°C° 0 mm 2 m/S 758 mmHg 69%
    22:00 +21°C° 0 mm 2 m/S 759 mmHg 73%
    23:00 +21°C° 0 mm 2 m/S 759 mmHg 76%

    21 August, Dienstag

    Zeit Temperatur Niederschläge Wind Luftdruck Luftfeuchtigkeit
    00:00 +20°C° 0 mm 2 m/S 759 mmHg 80%
    01:00 +20°C° 0 mm 2 m/S 759 mmHg 83%
    02:00 +19°C° 0 mm 2 m/S 759 mmHg 86%
    03:00 +18°C° 0 mm 2 m/S 759 mmHg 88%
    04:00 +18°C° 0 mm 2 m/S 759 mmHg 90%
    05:00 +18°C° 0 mm 2 m/S 759 mmHg 87%
    06:00 +18°C° 0 mm 2 m/S 759 mmHg 84%
    07:00 +19°C° 0 mm 2 m/S 760 mmHg 80%
    08:00 +20°C° 0 mm 3 m/S 760 mmHg 72%
    09:00 +22°C° 0 mm 3 m/S 760 mmHg 65%
    10:00 +24°C° 0 mm 3 m/S 760 mmHg 57%
    11:00 +26°C° 0 mm 3 m/S 760 mmHg 53%
    12:00 +27°C° 0 mm 3 m/S 759 mmHg 48%
    13:00 +28°C° 0 mm 3 m/S 759 mmHg 44%
    14:00 +28°C° 0 mm 3 m/S 759 mmHg 45%
    15:00 +28°C° 0 mm 3 m/S 759 mmHg 45%
    16:00 +28°C° 0 mm 3 m/S 759 mmHg 46%
    17:00 +27°C° 0 mm 3 m/S 759 mmHg 51%
    18:00 +26°C° 0 mm 2 m/S 759 mmHg 55%
    19:00 +25°C° 0 mm 1 m/S 758 mmHg 60%
    20:00 +24°C° 0 mm 1 m/S 759 mmHg 63%
    21:00 +23°C° 0 mm 1 m/S 759 mmHg 66%
    22:00 +22°C° 0 mm 1 m/S 759 mmHg 69%
    23:00 +22°C° 0 mm 1 m/S 759 mmHg 71%

    22 August, Mittwoch

    Zeit Temperatur Niederschläge Wind Luftdruck Luftfeuchtigkeit
    00:00 +22°C° 0 mm 1 m/S 759 mmHg 72%
    01:00 +21°C° 0 mm 1 m/S 759 mmHg 73%
    02:00 +21°C° 0 mm 1 m/S 759 mmHg 74%
    03:00 +21°C° 0 mm 1 m/S 759 mmHg 74%
    04:00 +21°C° 0 mm 1 m/S 759 mmHg 74%
    05:00 +21°C° 0 mm 1 m/S 759 mmHg 73%
    06:00 +22°C° 0 mm 1 m/S 759 mmHg 71%
    07:00 +22°C° 0 mm 1 m/S 759 mmHg 70%
    08:00 +24°C° 0 mm 2 m/S 759 mmHg 66%
    09:00 +25°C° 0 mm 2 m/S 759 mmHg 62%
    10:00 +26°C° 0 mm 3 m/S 759 mmHg 57%
    11:00 +26°C° 0,1 mm 3 m/S 759 mmHg 57%
    12:00 +26°C° 0,1 mm 3 m/S 759 mmHg 56%
    13:00 +26°C° 0,1 mm 4 m/S 759 mmHg 55%
    14:00 +27°C° 0 mm 4 m/S 759 mmHg 54%
    15:00 +27°C° 0 mm 4 m/S 759 mmHg 52%
    16:00 +27°C° 0 mm 4 m/S 759 mmHg 51%
    17:00 +25°C° 0 mm 3 m/S 759 mmHg 54%
    18:00 +24°C° 0 mm 3 m/S 759 mmHg 58%
    19:00 +23°C° 0 mm 2 m/S 760 mmHg 61%
    20:00 +21°C° 0 mm 2 m/S 760 mmHg 65%
    21:00 +20°C° 0 mm 2 m/S 760 mmHg 68%
    22:00 +19°C° 0 mm 2 m/S 761 mmHg 71%
    23:00 +18°C° 0 mm 2 m/S 761 mmHg 73%

    23 August, Donnerstag

    Zeit Temperatur Niederschläge Wind Luftdruck Luftfeuchtigkeit
    00:00 +17°C° 0 mm 2 m/S 761 mmHg 75%
    01:00 +18°C° 0 mm 1 m/S 761 mmHg 78%
    02:00 +16°C° 0 mm 1 m/S 761 mmHg 79%
    03:00 +16°C° 0 mm 1 m/S 761 mmHg 81%
    04:00 +15°C° 0 mm 1 m/S 761 mmHg 83%
    05:00 +16°C° 0 mm 1 m/S 761 mmHg 79%
    06:00 +16°C° 0 mm 1 m/S 761 mmHg 76%
    07:00 +18°C° 0 mm 1 m/S 761 mmHg 72%
    08:00 +20°C° 0 mm 1 m/S 761 mmHg 65%
    09:00 +20°C° 0 mm 0 m/S 761 mmHg 58%
    10:00 +22°C° 0 mm 0 m/S 761 mmHg 50%
    11:00 +24°C° 0 mm 0 m/S 761 mmHg 46%
    12:00 +25°C° 0 mm 0 m/S 760 mmHg 42%
    13:00 +26°C° 0 mm 0 m/S 760 mmHg 38%
    14:00 +26°C° 0 mm 0 m/S 759 mmHg 37%
    15:00 +26°C° 0 mm 0 m/S 759 mmHg 36%
    16:00 +26°C° 0 mm 0 m/S 759 mmHg 35%
    17:00 +24°C° 0 mm 0 m/S 758 mmHg 39%
    18:00 +25°C° 0 mm 1 m/S 758 mmHg 43%
    19:00 +23°C° 0 mm 1 m/S 758 mmHg 47%
    20:00 +22°C° 0 mm 1 m/S 758 mmHg 48%
    21:00 +22°C° 0 mm 1 m/S 758 mmHg 50%
    22:00 +20°C° 0 mm 2 m/S 758 mmHg 51%
    23:00 +19°C° 0 mm 2 m/S 758 mmHg 52%
    Mehr zeigen